ORBCOMM FM02 [-]

Last updated on July 6, 2021, 3:36 p.m. UTC

1 23546U 95017B   21186.92254890  .00000426  00000-0  81513-4 0  9993
2 23546  69.9719  15.0010 0009520 295.3899  64.6259 14.70840670399214
UTC
Height (km)
Latitude
Longitude
Inclination
Orbital Period
UTC large
Height (km)
Speed (km/s)
/
Latitude / Longitude
Inclination (degrees)
Orbital Period (minutes)
Azimuth
Elevation
Range (km)
Doppler Factor
iOS Compass Heading
iOS Angle